Regional Weather Roundup
Issued by NWS Bismarck, ND

Home | Current Version | Previous Version | Text Only | Print | Product List | Glossary On
Versions: 1 2 3 4 5 6 7 8 9 10 11 12 13 14 15 16 17 18 19 20 21 22 23 24 25 26 27 28 29 30 31 32 33 34 35 36 37 38 39 40 41 42 43 44 45 46 47 48 49 50
000
ASUS43 KBIS 170602
RWRBIS

NWR BROADCAST TEXT
NATIONAL WEATHER SERVICE BISMARCK ND
1200 AM CST SUN DEC 17 2017

NOTE: "FAIR" INDICATES FEW OR NO CLOUDS BELOW 12,000 FEET WITH NO
SIGNIFICANT WEATHER AND/OR OBSTRUCTIONS TO VISIBILITY.


CITY           SKY/WX    TMP DP  RH WIND       PRES   REMARKS
WILLISTON      FAIR      21  17  84 SW9       30.05R WCI  11
MINOT          FAIR      26  19  74 SW9       30.01R WCI  17
MINOT AFB      CLEAR     22  17  81 W10       30.00R WCI  12
BISMARCK       FAIR      27  24  89 SW5       30.08R
DICKINSON      FAIR      24  18  77 W8        30.03S WCI  15
GARRISON         N/A     26  21  81 W9        30.03S WCI  17
HETTINGER ARPT CLOUDY    19  16  88 CALM      30.07F
JAMESTOWN      FAIR      28  26  92 SW6       30.05S
CARRINGTON     FAIR      27  23  86 W10       30.05S WCI  17
LINTON           N/A     25  23  93 SW7       30.09S WCI  17
OAKES            N/A     32  32 100 SW5       30.08S
TIOGA          FAIR      18  18 100 SW7       30.03S WCI   8
$$

CITY           SKY/WX    TMP DP  RH WIND       PRES   REMARKS
GRAND FORKS    CLOUDY    15  13  91 S8        30.05R WCI   4
GRAND FORKS AF CLOUDY    20  18  93 SW8       30.04R WCI  10
DEVILS LAKE    PTCLDY    22  19  89 SW9       30.02S WCI  12
FARGO          PTCLDY    26  25  96 S7        30.09R WCI  18
CANDO          FAIR      18  18 100 W10       30.02S WCI   6
CAVALIER       FAIR      10   9  92 CALM      30.00R
GWINNER          N/A     27  27 100 SW7       30.08R FOG     WCI  19
ROLLA          FAIR      14  14 100 S6        29.97S WCI   5
WALHALLA       FAIR      27  27 100 W9        29.99R WCI  17
$$

CITY           SKY/WX    TMP DP  RH WIND       PRES   REMARKS
ABERDEEN       CLOUDY    27  27 100 CALM      30.08S
MOBRIDGE       CLOUDY    28  24  85 CALM      30.06R
BUFFALO          N/A     25  21  85 W6        30.00S WCI  18
RAPID CITY     CLOUDY    32  23  69 NW10      30.06S
GLASGOW        CLEAR     15  11  83 SE5       30.03S WCI   8
SIDNEY         CLEAR     24  18  77 CALM      30.07R
WOLF POINT     CLEAR     15  11  83 W5        30.07S WCI   8
GLENDIVE       CLEAR     20  17  88 W7        30.07S WCI  11
MILES CITY     CLOUDY    21  20  96 S5        30.07F WCI  15
BAKER          PTCLDY    26  23  88 CALM      30.06S
$$

CITY           SKY/WX    TMP DP  RH WIND       PRES   REMARKS
BILLINGS       FOG       25  25 100 SW8       30.06S VSB 1/4 WCI  16
GREAT FALLS    CLEAR     20  13  74 SW13      29.97F WCI   7
$$




USA.gov is the U.S. government's official web portal to all federal, state and local government web resources and services.